Regional Weather Roundup
Issued by NWS

Home | Current Version | Previous Version | Text Only | Print | Product List | Glossary Off
Versions: 1 2 3 4 5 6 7 8 9 10 11 12 13 14 15 16 17 18 19 20 21 22 23 24 25 26 27 28 29 30 31 32 33 34 35 36 37 38 39 40 41 42 43 44 45 46 47 48 49 50

000
ASUS43 KOAX 242302
RWRNE

WEATHER ROUNDUP FOR NEBRASKA
NATIONAL WEATHER SERVICE OMAHA NE
600 PM CDT SUN MAY 24 2015

NOTES: SATELLITE DATA IS BEING USED TO AUGMENT CLOUD COVER ABOVE
       12000 FEET.
       "FAIR" INDICATES FEW OR NO CLOUDS BELOW 12,000 FEET WITH NO
       SIGNIFICANT WEATHER AND/OR OBSTRUCTIONS TO VISIBILITY.

  * THESE STATIONS DO NOT REPORT WEATHER SUCH AS RAIN...SNOW OR FOG.

NEZ001>004-019>022-054>056-250000-
NEBRASKA PANHANDLE

CITY           SKY/WX    TMP DP  RH WIND       PRES   REMARKS
SCOTTSBLUFF    PTSUNNY   67  46  47 SE9       29.78F
ALLIANCE       MOSUNNY   69  47  45 S7        29.77F
CHADRON        MOSUNNY   64  56  75 NE20      29.79F
KIMBALL          N/A    N/A N/A N/A MISG        N/A
SIDNEY         CLOUDY    61  52  72 S5        29.81S
$$

NEZ057>060-069>072-079>082-250000-
SOUTHWEST NEBRASKA

CITY           SKY/WX    TMP DP  RH WIND       PRES   REMARKS
NORTH PLATTE   PTSUNNY   69  56  62 E13       29.77F
IMPERIAL       MOSUNNY   68  51  54 SE12      29.75F
LEXINGTON      CLOUDY    67  60  78 E9        29.80F
MCCOOK         PTSUNNY   70  58  65 E17       29.76F
$$

NEZ005>010-023>029-035>040-094-250000-
NORTH CENTRAL NEBRASKA

CITY           SKY/WX    TMP DP  RH WIND       PRES   REMARKS
VALENTINE      PTSUNNY   66  57  72 E13       29.81F
AINSWORTH      LGT RAIN  63  61  94 E8        29.82F
BROKEN BOW     CLOUDY    67  58  72 SE7       29.80F
ORD            CLOUDY    66  57  72 CALM      29.80S
$$

NEZ041-046>049-061>064-073>077-083>087-250000-
SOUTH CENTRAL NEBRASKA

CITY           SKY/WX    TMP DP  RH WIND       PRES   REMARKS
GRAND ISLAND   CLOUDY    66  57  72 S3        29.81F
AURORA         CLOUDY    67  59  75 S6        29.81F
HASTINGS       CLOUDY    65  57  75 S6        29.82S
HEBRON         CLOUDY    64  61  90 SE7       29.82F
HOLDREGE       CLOUDY    64  57  77 SE10      29.81F
KEARNEY *      CLOUDY    64  57  77 S5        29.82S
$$

NEZ011>018-030>034-042>045-250000-
NORTHEAST NEBRASKA

CITY           SKY/WX    TMP DP  RH WIND       PRES   REMARKS
NORFOLK        CLOUDY    65  58  78 CALM      29.80S
ALBION         CLOUDY    64  58  79 CALM      29.81S
BLAIR          CLOUDY    67  61  79 SW3       29.80S
COLUMBUS *     CLOUDY    66  57  72 SW6       29.84R
FREMONT        CLOUDY    68  60  75 CALM      29.81S
TEKAMAH        CLOUDY    68  62  81 SW5       29.79S
WAYNE          CLOUDY    64  61  90 CALM      29.80S
$$

NEZ050>053-065>068-078-088>093-250000-
SOUTHEAST NEBRASKA

CITY           SKY/WX    TMP DP  RH WIND       PRES   REMARKS
LINCOLN        CLOUDY    69  62  78 S10       29.81S
OMAHA EPPLEY   CLOUDY    70  61  73 SW6       29.79S
BEATRICE       CLOUDY    67  60  78 SW13      29.83S
FALLS CITY     CLOUDY    67  62  84 SW12      29.82F
NEBRASKA CITY  CLOUDY    68  62  80 SW13      29.81S
PLATTSMOUTH    CLOUDY    68  61  78 S8        29.81S
$$

NEZ044-045-051>053-067-250000-
OMAHA AREA

CITY           SKY/WX    TMP DP  RH WIND       PRES   REMARKS
OMAHA EPPLEY   CLOUDY    70  61  73 SW6       29.79S
BLAIR          CLOUDY    67  61  79 SW3       29.80S
FREMONT        CLOUDY    68  60  75 CALM      29.81S
MILLARD        CLOUDY    70  62  75 SW5       29.79F
OFFUTT AFB     CLOUDY    70  62  77 SW3       29.79S
PLATTSMOUTH    CLOUDY    68  61  78 S8        29.81S
WAHOO          CLOUDY    69  62  76 SW3       29.80S
$$


USA.gov is the U.S. government's official web portal to all federal, state and local government web resources and services.